Raton, NM

12:46 PM MST on December 17, 2017 (GMT -0700)
Raton Municipal-Crews

Weather History for KRTN - January, 2014

Change the Weather History Date:

Saturday, January 18, 2014

  Actual Average (KTAD) Record (KTAD)
Temperature  
Mean Temperature 37 °F -  
Max Temperature 57 °F 45 °F 65 °F (2009)
Min Temperature 17 °F 20 °F -11 °F (1960)
Degree Days  
Heating Degree Days 28    
Moisture  
Dew Point 5 °F    
Average Humidity 35    
Maximum Humidity 65    
Minimum Humidity 8    
Precipitation  
Precipitation 0.00 in - - ()
Sea Level Pressure  
Sea Level Pressure 30.21 in    
Wind  
Wind Speed 7 mph (NNE)    
Max Wind Speed 12 mph    
Max Gust Speed -    
Visibility 10 miles    
Events      
Averages and records for this station are not official NWS values.
T = Trace of Precipitation, MM = Missing Value Source: NWS Daily Summary

Daily Weather History Graph

Daily Weather History Graph

Search for Another Location

Airport or City:

Trip Planner

Search our weather history database for the weather conditions in past years. The results will help you decide how hot, cold, wet, or windy it might be!

Date:

Astronomy

Jan. 18, 2014 Rise Set
Actual Time 7:08 AM MST 5:08 PM MST
Civil Twilight 6:40 AM MST 5:36 PM MST
Nautical Twilight 6:08 AM MST 6:08 PM MST
Astronomical Twilight 5:37 AM MST 6:39 PM MST
Moon 7:47 PM MST (1/18) 8:14 AM MST (1/18)
Length of Visible Light 10h 56m
Length of Day
10h 00m
Waning Gibbous, 94% of the Moon is Illuminated
Jan 18
Waning Gibbous
Jan 23
Last Quarter
Jan 30
New
Feb 6
First Quarter
Feb 14
Full

Hourly Weather History & Observations

Time (MST) Temp. Windchill Dew Point Humidity Pressure Visibility Wind Dir Wind Speed Gust Speed Precip Events Conditions
12:53 AM 17.1 °F 8.7 °F 7.0 °F 65% 30.12 in 10.0 mi NE 5.8 mph - N/A   Clear
1:53 AM 19.0 °F 7.5 °F 8.1 °F 62% 30.11 in 10.0 mi ENE 10.4 mph - N/A   Clear
2:53 AM 19.0 °F 7.5 °F 8.1 °F 62% 30.14 in 10.0 mi NE 10.4 mph - N/A   Clear
3:53 AM 21.0 °F 12.4 °F 9.0 °F 60% 30.12 in 10.0 mi NNE 6.9 mph - N/A   Clear
4:53 AM 23.0 °F 15.8 °F 9.0 °F 55% 30.14 in 10.0 mi NNW 5.8 mph - N/A   Clear
5:53 AM 23.0 °F 15.8 °F 8.1 °F 53% 30.20 in 10.0 mi North 5.8 mph - N/A   Clear
6:53 AM 27.0 °F 23.0 °F 7.0 °F 43% 30.19 in 10.0 mi Variable 3.5 mph - N/A   Clear
7:53 AM 28.0 °F 20.0 °F 10.0 °F 47% 30.23 in 10.0 mi North 8.1 mph - N/A   Clear
8:53 AM 39.0 °F - 10.9 °F 32% 30.22 in 10.0 mi Calm Calm - N/A   Clear
9:53 AM 46.0 °F 43.1 °F 10.0 °F 23% 30.21 in 10.0 mi ENE 5.8 mph - N/A   Clear
10:53 AM 48.0 °F - 8.1 °F 20% 30.23 in 10.0 mi Calm Calm - N/A   Clear
11:53 AM 52.0 °F - 8.1 °F 17% 30.19 in 10.0 mi Variable 5.8 mph - N/A   Clear
12:53 PM 54.0 °F - 8.1 °F 16% 30.17 in 10.0 mi South 6.9 mph - N/A   Clear
1:53 PM 57.9 °F - 1.9 °F 10% 30.14 in 10.0 mi NE 11.5 mph - N/A   Clear
2:53 PM 57.0 °F - 1.9 °F 11% 30.15 in 10.0 mi NE 10.4 mph - N/A   Clear
3:53 PM 55.0 °F - -7.1 °F 8% 30.17 in 10.0 mi NE 10.4 mph - N/A   Clear
4:53 PM 46.9 °F - -2.0 °F 13% 30.22 in 10.0 mi ENE 9.2 mph - N/A   Clear
5:53 PM 33.1 °F 28.7 °F -0.9 °F 23% 30.31 in 10.0 mi North 4.6 mph - N/A   Clear
6:53 PM 30.9 °F 24.3 °F 1.0 °F 28% 30.31 in 10.0 mi North 6.9 mph - N/A   Clear
7:53 PM 32.0 °F 27.5 °F 1.9 °F 28% 30.31 in 10.0 mi NNW 4.6 mph - N/A   Clear
8:53 PM 28.9 °F - 1.0 °F 30% 30.29 in 10.0 mi Calm Calm - N/A   Clear
9:53 PM 24.1 °F 15.2 °F 1.9 °F 38% 30.27 in 10.0 mi ENE 8.1 mph - N/A   Clear
10:53 PM 24.1 °F 16.0 °F 3.0 °F 40% 30.26 in 10.0 mi North 6.9 mph - N/A   Clear
11:53 PM 19.9 °F 14.9 °F 1.9 °F 46% 30.24 in 10.0 mi North 3.5 mph - N/A   Clear